Tracking 18850 objects as of 22-Nov-2017
HD Live streaming from Space Station
objects crossing your sky now

FENGYUN 1C DEB

Track FENGYUN 1C DEB now!
10-day predictions


NORAD ID: 31080
Int'l Code: 1999-025BGA
Perigee: 816.7 km
Apogee: 941.1 km
Inclination: 99.1 °
Period: 102.4 minutes
Semi major axis: 7249 km
RCS: 0.0084 m2 (small)
Launch date: May 10, 1999
Source: People's Republic of China (PRC)
Launch site: Taiyaun Space Center, China (TSC)

Note: This is SATELLITE DEBRIS
aabbcc
Your satellite tracking list
Your tracking list is empty




NASA's NSSDC Master Catalog

Two Line Element Set (TLE):
1 31080U 99025BGA 17319.98167598 +.00000910 +00000-0 +55908-3 0  9991
2 31080 099.0911 032.0292 0085760 093.0395 268.0590 14.06393469213771
Source of the keplerian elements: AFSPC